Location: Kapla
(46.2483°N, 15.0094°E)
Time: 18:41:54
(UTC+00:00)

Cosmos 2219 Rocket - Pass Details

Date: 03 March 2021
Orbit: 826 x 848 km, 71.0° (Epoch: 14 April)

Event Time Altitude Azimuth Distance (km) Brightness Sun altitude
Rises 19:23:57 0° 210° (SSW) 3,354 5.4 -27.2°
Reaches altitude 10° 19:26:22 10° 213° (SSW) 2,426 4.7 -27.6°
Maximum altitude 19:31:55 73° 298° (WNW) 869 2.3 -28.4°
Drops below altitude 10° 19:37:33 10° 23° (NNE) 2,453 4.6 -29.3°
Sets 19:40:01 0° 26° (NNE) 3,394 5.3 -29.7°
